Flag for Turkey Weather past 2 weeks in Bursa, Turkey

Now
53 °F

Sprinkles. Overcast.


Feels Like: 53 °F
Forecast: 51 / 63 °F
Wind: 1 mph from East

Location: Bursa

Current Time: Mar 29, 2015 at 6:42:52 AM

Latest Report: Mar 29, 2015 at 2:00 AM


Visibility: 5 mi

Pressure: 29.75 "Hg

Humidity: 99%

Dew point: 53 °F

Location of BursaLocation

Historic Weather in Bursa — Graph

°F

Bursa temperature yesterday

Maximum temperature yesterday: 64 °F (at 3:00 PM)
Minimum temperature yesterday: 53 °F (at 8:00 AM)
Average temperature yesterday: 58 °F

Past Weeks' High & Low Weather Summary

 TemperatureHumidityPressure
High73 °F (Mar 26, 3:00 PM)100% (Mar 22, 2:00 AM)30.52 "Hg (Mar 22, 2:00 AM)
Low30 °F (Mar 18, 7:00 AM)36% (Mar 19, 11:00 AM)29.64 "Hg (Mar 28, 3:00 PM)
Average48 °F78%30.14 "Hg
* Reported Mar 14 2:00 AM — Mar 29 2:00 AM, Bursa, Weather by CustomWeather, © 2015

Note: Actual official high and low records may vary slightly from our data, if they occured in-between our weather recording intervals... More about our weather records

Advertising

Bursa weather history for previous 24 hours

 ConditionsComfort  
Time TempWeatherWind HumidityBarometerVisibility
2:00 AM
Sun, Mar 29
53 °FSprinkles. Overcast.1 mph99%29.75 "Hg5 mi
11:00 PM
Sat, Mar 28
54 °FRain showers. Overcast.2 mph99%29.77 "Hg4 mi
8:00 PM55 °FSprinkles. Overcast.No wind91%29.74 "Hg4 mi
7:00 PM56 °FSprinkles. Overcast.2 mph87%29.70 "Hg5 mi
6:00 PM58 °FSprinkles. Overcast.1 mph89%29.69 "Hg4 mi
5:00 PM58 °FPartly sunny.5 mph84%29.66 "Hg7 mi
4:00 PM56 °FSprinkles. Overcast.8 mph87%29.66 "Hg4 mi
3:00 PM64 °FPartly sunny.3 mph69%29.64 "Hg7 mi
2:00 PM62 °FSprinkles. Overcast.6 mph72%29.66 "Hg5 mi
1:00 PM62 °FPartly sunny.5 mph71%29.65 "Hg9 mi
12:00 PM61 °FPartly sunny.8 mph73%29.67 "Hg9 mi
11:00 AM56 °FOvercast.6 mph84%29.66 "Hg6 mi
10:00 AM54 °FSprinkles. Overcast.9 mph90%29.67 "Hg4 mi
9:00 AM54 °FSprinkles. Overcast.2 mph94%29.72 "Hg4 mi
8:00 AM53 °FRain showers. Overcast.5 mph94%29.72 "Hg4 mi
7:00 AM54 °FSprinkles. Overcast.1 mph92%29.71 "Hg5 mi
6:00 AM54 °FOvercast.2 mph89%29.70 "Hg6 mi
Weather by CustomWeather, © 2015

See weather overviewHow to use our weather pages